Location: Burland Observatory
(39.4088°N, 105.4217°W)
Time: 20:28:46
(UTC-07:00)

N. Korean satellite - Visible Passes

Search period start: 21 November 2019 00:00
Search period end: 01 December 2019 00:00
Orbit: 456 x 506 km, 97.2° (Epoch: 21 November)

Date Brightness Start Highest point End Pass type
(mag) Time Alt. Az. Time Alt. Az. Time Alt. Az.
21 Nov 6.7 06:11:00 10° N 06:14:36 55° WNW 06:18:08 10° SSW visible
21 Nov 10.3 18:21:15 10° WSW 18:22:13 11° W 18:23:11 10° WNW visible
22 Nov 7.0 05:45:35 10° NNE 05:49:14 65° E 05:52:49 10° S visible
22 Nov 9.4 17:53:43 10° SSW 17:56:37 22° W 17:59:34 10° NW visible
23 Nov 8.8 05:20:33 10° NE 05:23:46 29° E 05:26:56 10° SSE visible
23 Nov 7.8 17:27:36 10° S 17:31:07 47° W 17:34:43 10° NNW visible
24 Nov 10.0 04:56:14 10° ENE 04:58:13 14° E 05:00:12 10° SE visible
25 Nov 6.5 06:02:45 10° N 06:06:24 71° WNW 06:09:57 10° SSW visible
25 Nov 10.0 18:11:57 10° SW 18:13:54 14° W 18:15:53 10° WNW visible
26 Nov 7.6 05:37:26 10° NNE 05:41:00 49° E 05:44:28 10° S visible
26 Nov 8.9 17:45:09 10° SSW 17:48:21 28° W 17:51:35 10° NW visible
27 Nov 9.2 05:12:34 10° NE 05:15:30 23° E 05:18:22 10° SSE visible
27 Nov 7.2 17:19:15 10° S 17:22:52 62° W 17:26:34 10° NNW visible
28 Nov 10.2 04:48:52 10° ENE 04:49:53 11° E 04:50:54 10° ESE visible
28 Nov 7.0 06:20:04 10° N 06:23:29 40° WNW 06:26:50 10° SW visible
29 Nov 6.5 05:54:31 10° NNE 05:58:09 88° ESE 06:01:41 10° SSW visible
29 Nov 9.8 18:03:05 10° SW 18:05:35 17° W 18:08:08 10° NW visible
30 Nov 8.1 05:29:19 10° NNE 05:32:42 38° E 05:36:00 10° SSE visible
30 Nov 8.4 17:36:38 10° SSW 17:40:03 36° W 17:43:30 10° NNW visible
